Погода в Слуцке

Погода в Слуцке : погода сейчас, прогноз погоды и архив. Всё, что Вы хотите узнать о погоде в Слуцке!

Хотите узнать прогноз погоды в Слуцке? Тогда Вам сюда: Погода в Слуцке

Поиск расширенной информации на нашем сайте:

Другие новости

Новости СМИ2

Главная страница сайта

Новости сайта

03.07.2017

Напоминаем, что на нашем специализированном сайте Метеоцентр.Азия вы можете получить высокодетализированные автоматические прогнозы погоды по пунктам России, СНГ и мира в авиационном формате (включающие направление и скорость ветра, видимость, явления погоды, количество и форму облачности, нижнюю и верхнюю границу облачности).


Погода в Слуцке - сегодня

Время (UTC), дата Ветер
(°,м/с) 
Видим.   Явления Облачность Т
(°С)
Тd
(°С)
f(%) Тe
(°С)
Pmin
(гПа)
dP
(гПа)
Po
(мм)
O2
(г/м3)
Тmin Tmax R s Состояние
почвы
12 20.09.18 260 (З) 15000 м    ясно 
+26.7 +14.8 48 +35  1019  -0.8  750  272           
15 20.09.18 260 (З) 13000 м    ясно 
+25.2 +15.3 54 +34  1018.5  -0.5  750  274           
18 20.09.18 220 (ЮЗ) 13000 м    ясно 
+20.7 +13.6 64 +27  1019.3  0.4  750  278    +27.3       
21 20.09.18 220 (ЮЗ) 13000 м    ясно 
+17.7 +12.3 71 +23  1019.4  750  282           
00 21.09.18 240 (ЮЗ) 12000 м    ясно 
+15.5 +12.4 82 +21  1019.8  0.1  750  284           
03 21.09.18 200 (Ю) 10 км    ясно 
+14.1 +11.7 85 +18  1019.9  0.1  750  285           
06 21.09.18 230 (ЮЗ) 9000 м  дымка  ясно 
+16.4 +15.9 97 +28  1019.8  750  282  +13         
09 21.09.18 200 (Ю) 18000 м    ясно 
+24.3 +10.9 43 +27  1019.2  -0.1  750  276           
12 21.09.18 270 (З) 25000 м    3/3 600 м 
[Cu hum]
+26.3 +10.2 36 +28  1017.7  -1.3  749  274           
15 21.09.18 210 (ЮЗ) 19000 м    ясно 
+25.1 +14.1 50 +32  1015.9  -1.9  748  273           
18 21.09.18 180 (Ю) 14000 м    ясно 
+21.4 +13.2 60 +27  1014.8  -1.2  747  277    +27       
21 21.09.18 170 (Ю) 13000 м    ясно 
+19.4 +12.8 66 +25  1013.6  -1.3  746  278           
00 22.09.18 190 (Ю) 11000 м    ясно 
+17 +12.1 73 +22  1012.7  -1.2  745  280           
03 22.09.18 200 (Ю) 12000 м    3/0 средняя 
[Ac lent]
+14.6 +10.6 77 +18  1011.3  -1.4  744  283           
06 22.09.18 240 (ЮЗ) 15000 м    9/0 верхняя 
[Ci sp]
+17.2 +10.3 64 +20  1010  -1.2  743  280  +14.3         
09 22.09.18 340 (С) 9-13{16}  15000 м    9/9 800 м 
[Sc]
+16 +10.2 68 +17  1013.2  3.1  746  282           
12 22.09.18 300 (СЗ) 6{13}  10 км  слаб. ливневой дождь  10/6 600 м кучево-дожд., средняя 
[Cb cap|As op]
+12.6 +10.5 87 +14  1016  2.5  747  286      0.0     
15 22.09.18 260 (З) 3{10}  10 км  слаб. дождь  10/0 средняя 
[As op]
+10.6 +8.8 89 +10  1016.7  0.8  748  289         
18 22.09.18 250 (З) 12000 м  {дождь}  9/9 900 м 
[Sc]
+10.2 +9 92 +9  1015.9  -1  747  289    +18.7     
21 22.09.18 280 (З) 13000 м    10/10 240 м 
[St]
+10.9 +9.7 92 +10  1015.3  -0.6  747  288           
00 23.09.18 260 (З) 7000 м  дымка  3/0 средняя 
[Ac und]
+8.4 +7.8 96 +7  1015.2  -0.2  747  291           
03 23.09.18 270 (З) 8000 м  дымка  ясно 
+6.8 +6.1 95 +5  1015.2  -0.2  747  292           
06 23.09.18 270 (З) 5000 м  дымка{туман}  10/10 120 м 
[St]
+8 +7.4 96 +6  1014.9  -0.1  746  291  +6.1         
09 23.09.18 270 (З) 20000 м    3/0 средняя 
[Ac trans]
+13.6 +8.6 72 +12  1014.2  -0.5  746  285           
12 23.09.18 280 (З) 7-11{13}  20000 м    9/8 600 м средняя 
[Cu Sc|Ac trans]
+15.4 +6.1 54 +15  1013.6  -0.4  746  283           
Время (UTC), дата Ветер
(°,м/с) 
Видим.   Явления Облачность Т
(°С)
Тd
(°С)
f(%) Тe
(°С)
Pmin
(гПа)
dP
(гПа)
Po
(мм)
O2
(г/м3)
Тmin Tmax R s Состояние
почвы

Для получения пояснительной информации подведите курсор к названию столбца.

ПОГОДА в Слуцке - архив

Всё, что Вы хотите узнать о погоде в Слуцке - удобно и подробно!

Выберите нужную дату (начиная с 1 января 2015* года) и нажмите кнопку "Найти".
Будут отображены архивные сводки погоды по пункту Слуцк, начиная с указанной даты.


Отображать данные в формате CSV (для использования в таблицах Excel)


Внимание! Наш архив погоды предназначен исключительно для личного некоммерческого использования в познавательных целях. Если Вам необходимы официальные справки о состоянии погоды (для производственных, юридических, коммерческих и т.п. целей), обращайтесь в органы Росгидромета.

*Примечание: данная дата относится к архиву по метеостанциям СССР (Россия, СНГ, Балтия).
Архив по метеостанциям Зарубежной Европы и Азии (кроме Китая) хранится 10 дней, по другим регионам земного шара (Китай, Африка, Америка, Австралия, Океания) - 1 день.

Слуцк - район местоположения метеостанции


Название, широта, долгота, высота метеостанции:
Слуцк 53°ш. 27.6°д. 162 м над ур. моря [Беларусь]

Дополнительная информация

В oтличие oт бoльшинства пoгoдных сайтoв мы публикуем пoдрoбную метеoинфoрмацию в детальнoм прoфессиoнальнoм фoрмате.

Характеристики температуры и влажнoсти вoздуха измеряются на высoте 2 м в тени вдали oт зданий и деревьев.
Скoрoсть ветра измеряется на высoте 10 м (на урoвне рoста челoвека скoрoсть ветра ниже в 1.5-2 раза). Если метеoстанция нахoдится в гoрoде или в лесу, тo скoрoсть ветра занижена на 2-4 м/с пo сравнению с oткрытым местoм. Скoрoсть ветра над акватoриями крупных рек и oзёр, а также на вершинах хoлмoв на 2-5 м/с выше, чем в oбычных услoвиях.
Атмoсфернoе давление в разных тoчках местнoсти мoжет значительнo oтличаться oт давления на метеoстанции, в зависимoсти oт услoвий рельефа (при пoдъёме на 10 м давление пoнижается примернo на 1 мм рт.ст.).